QPF
0.00 0.00 0.00 0.00 0.00 0.00 0.00 0.00 0.00 0.00 0.00 0.00 0.00 0.00 0.00 0.00 0.00 0.00 0.00 0.00 0.00 0.00 0.00 0.00 0.01 0.01 0.00 0.00 0.01 0.01 0.05 0.11
0.00 0.00 0.00 0.00 0.00 0.00 0.00 0.00 0.00 0.00 0.00 0.00 0.00 0.00 0.00 0.00 0.00 0.00 0.00 0.00 0.00 0.00 0.00 0.00 0.00 0.00 0.00 0.00 0.00 0.03 0.04 0.06
0.00 0.00 0.00 0.00 0.00 0.00 0.00 0.00 0.00 0.00 0.00 0.00 0.00 0.00 0.00 0.00 0.00 0.00 0.00 0.00 0.00 0.00 0.00 0.00 0.00 0.00 0.00 0.00 0.00 0.03 0.05 0.08
0.00 0.00 0.00 0.00 0.00 0.00 0.00 0.00 0.00 0.00 0.00 0.00 0.00 0.00 0.00 0.00 0.00 0.00 0.00 0.00 0.00 0.00 0.00 0.00 0.00 0.00 0.00 0.00 0.00 0.00 0.00 0.08
0.00 0.00 0.00 0.00 0.00 0.00 0.00 0.00 0.00 0.00 0.00 0.00 0.00 0.00 0.00 0.00 0.00 0.00 0.00 0.00 0.00 0.00 0.01 0.00 0.00 0.00 0.00 0.00 0.00 0.00 0.00 0.04
0.00 0.00 0.00 0.00 0.00 0.00 0.00 0.00 0.00 0.00 0.00 0.00 0.00 0.00 0.00 0.00 0.00 0.00 0.00 0.00 0.00 0.00 0.00 0.00 0.00 0.00 0.00 0.00 0.00 0.00 0.00 0.02
0.00 0.00 0.00 0.00 0.00 0.00 0.00 0.00 0.00 0.00 0.00 0.00 0.00 0.00 0.00 0.00 0.00 0.00 0.00 0.00 0.00 0.00 0.00 0.00 0.00 0.00 0.00 0.00 0.00 0.01 0.00 0.02
0.00 0.00 0.00 0.00 0.00 0.00 0.00 0.00 0.00 0.00 0.00 0.00 0.00 0.00 0.00 0.00 0.00 0.00 0.00 0.00 0.00 0.00 0.00 0.00 0.00 0.00 0.00 0.00 0.00 0.00 0.00 0.01
0.00 0.00 0.00 0.00 0.00 0.00 0.00 0.00 0.00 0.00 0.00 0.00 0.00 0.00 0.00 0.00 0.00 0.00 0.00 0.00 0.00 0.00 0.00 0.00 0.00 0.00 0.00 0.00 0.00 0.00 0.00 0.01
0.00 0.00 0.00 0.00 0.00 0.00 0.00 0.00 0.00 0.00 0.00 0.00 0.00 0.00 0.00 0.00 0.00 0.00 0.00 0.00 0.00 0.00 0.00 0.00 0.00 0.00 0.00 0.00 0.00 0.00 0.01 0.01
0.00 0.00 0.00 0.00 0.00 0.00 0.00 0.00 0.00 0.00 0.00 0.00 0.00 0.00 0.00 0.00 0.00 0.00 0.00 0.00 0.00 0.00 0.00 0.00 0.00 0.00 0.00 0.00 0.00 0.00 0.00 0.00
0.00 0.00 0.00 0.00 0.00 0.00 0.00 0.00 0.00 0.00 0.00 0.00 0.00 0.00 0.00 0.00 0.01 0.00 0.00 0.00 0.00 0.00 0.00 0.00 0.00 0.00 0.00 0.00 0.00 0.00 0.00 0.00
0.00 0.00 0.00 0.00 0.00 0.00 0.00 0.00 0.00 0.00 0.00 0.00 0.00 0.00 0.01 0.01 0.01 0.00 0.00 0.00 0.00 0.00 0.00 0.00 0.00 0.00 0.00 0.00 0.01 0.02 0.03 0.03
0.00 0.00 0.00 0.00 0.00 0.00 0.00 0.00 0.00 0.00 0.00 0.01 0.00 0.00 0.01 0.02 0.02 0.00 0.00 0.00 0.00 0.00 0.00 0.00 0.00 0.00 0.00 0.00 0.00 0.01 0.02 0.05
0.00 0.00 0.00 0.00 0.00 0.00 0.00 0.00 0.00 0.00 0.01 0.02 0.01 0.01 0.02 0.03 0.02 0.00 0.00 0.00 0.00 0.00 0.00 0.00 0.00 0.00 0.00 0.00 0.00 0.01 0.02 0.05
0.00 0.00 0.00 0.00 0.00 0.00 0.00 0.00 0.01 0.02 0.04 0.04 0.02 0.02 0.02 0.03 0.03 0.01 0.00 0.00 0.00 0.00 0.00 0.00 0.00 0.00 0.00 0.00 0.00 0.00 0.00 0.01
0.00 0.00 0.00 0.00 0.00 0.00 0.00 0.00 0.02 0.03 0.05 0.03 0.02 0.03 0.08 0.09 0.05 0.02 0.00 0.00 0.00 0.00 0.00 0.00 0.00 0.00 0.00 0.00 0.00 0.00 0.00 0.00
0.00 0.00 0.00 0.00 0.00 0.00 0.00 0.02 0.05 0.04 0.07 0.05 0.03 0.06 0.15 0.14 0.09 0.04 0.01 0.01 0.00 0.00 0.00 0.00 0.00 0.00 0.00 0.00 0.00 0.00 0.00 0.00
0.00 0.00 0.00 0.00 0.00 0.00 0.01 0.05 0.09 0.14 0.14 0.13 0.10 0.11 0.16 0.16 0.10 0.06 0.02 0.01 0.00 0.00 0.00 0.00 0.00 0.00 0.00 0.00 0.00 0.00 0.00 0.00
MSLP
998.04 998.53 998.91 999.26 999.79 1000.30 1000.80 1001.47 1002.38 1003.46 1004.51 1005.50 1005.91 1006.51 1006.90 1007.14 1007.45 1007.91 1008.45 1009.22 1009.77 1010.18 1010.55 1010.86 1011.35 1012.40 1013.25 1014.02 1014.61 1015.02 1015.48 1015.97
997.17 997.71 998.49 999.06 999.63 1000.27 1000.93 1001.54 1002.27 1003.13 1004.02 1004.93 1005.50 1005.68 1006.33 1006.70 1007.13 1007.61 1008.27 1009.06 1009.56 1010.01 1010.34 1010.62 1011.20 1012.05 1012.97 1013.74 1014.66 1015.12 1015.53 1015.87
997.14 997.73 998.48 999.26 999.91 1000.52 1001.09 1001.60 1002.22 1002.89 1003.62 1004.11 1004.68 1005.24 1005.70 1006.31 1006.78 1007.23 1007.60 1008.26 1008.83 1009.49 1009.91 1010.27 1010.86 1011.85 1012.75 1013.48 1014.15 1014.73 1015.22 1015.41
997.14 997.66 998.52 999.48 1000.25 1000.83 1001.45 1001.81 1002.15 1002.42 1002.83 1003.47 1004.30 1005.20 1005.99 1006.53 1006.78 1007.05 1007.15 1007.60 1008.07 1008.94 1009.55 1010.19 1010.68 1011.45 1012.24 1012.99 1013.59 1014.08 1014.54 1015.08
996.99 997.51 998.62 999.64 1000.50 1000.92 1001.60 1002.11 1002.25 1002.03 1002.18 1002.78 1003.69 1004.57 1005.46 1005.82 1006.31 1006.81 1007.03 1007.24 1007.86 1008.44 1008.97 1009.72 1010.45 1011.08 1011.79 1012.42 1012.99 1013.57 1013.99 1014.44
997.22 997.91 998.80 999.75 1000.34 1001.12 1001.85 1002.40 1002.58 1002.23 1002.09 1002.34 1003.25 1004.01 1004.57 1005.29 1005.98 1006.43 1006.92 1007.00 1007.47 1008.04 1008.45 1009.20 1010.07 1010.70 1011.29 1011.83 1012.43 1013.04 1013.39 1013.70
997.61 998.25 999.31 1000.14 1000.63 1001.32 1002.01 1002.46 1002.38 1002.16 1002.18 1002.28 1002.62 1003.46 1004.10 1004.82 1005.18 1005.63 1006.13 1006.58 1007.00 1007.43 1007.93 1008.63 1009.63 1010.24 1010.74 1011.32 1011.86 1012.43 1012.85 1013.24
998.54 999.05 1000.03 1001.02 1001.35 1001.74 1002.11 1002.45 1002.53 1002.29 1002.06 1002.24 1002.35 1002.87 1003.71 1004.19 1004.43 1004.60 1005.08 1005.85 1006.49 1006.91 1007.49 1008.19 1009.09 1009.68 1010.24 1010.89 1011.44 1011.95 1012.47 1012.89
999.60 1000.10 1000.94 1002.00 1002.43 1002.97 1003.25 1003.36 1003.23 1002.69 1002.47 1002.00 1002.03 1002.59 1003.27 1003.58 1003.76 1003.53 1004.12 1004.87 1005.75 1006.40 1007.04 1007.69 1008.48 1009.18 1009.77 1010.43 1010.99 1011.48 1011.99 1012.48
1000.08 1000.85 1001.95 1002.97 1003.61 1004.08 1004.40 1004.14 1003.77 1003.14 1002.84 1002.24 1001.62 1001.97 1002.75 1003.21 1003.10 1003.11 1003.31 1004.04 1005.07 1005.81 1006.60 1007.36 1007.96 1008.63 1009.33 1009.96 1010.54 1011.05 1011.59 1012.04
1000.70 1001.69 1002.64 1003.55 1003.98 1004.43 1004.61 1004.62 1004.15 1003.63 1003.36 1002.24 1001.53 1001.49 1001.98 1002.74 1002.86 1002.84 1002.87 1003.40 1004.53 1005.54 1006.36 1007.12 1007.58 1008.21 1008.82 1009.42 1010.11 1010.70 1011.21 1011.69
1001.92 1002.74 1003.36 1003.95 1004.34 1004.64 1004.86 1004.91 1004.66 1004.02 1003.37 1001.96 1000.69 1000.92 1001.35 1002.18 1002.46 1002.41 1002.47 1003.28 1004.17 1005.09 1005.98 1006.63 1007.06 1007.74 1008.32 1008.97 1009.68 1010.23 1010.74 1011.29
1003.56 1004.27 1004.78 1004.95 1005.04 1005.07 1005.29 1005.06 1004.84 1004.34 1003.45 1001.39 1000.19 1000.76 1001.20 1001.91 1002.09 1002.11 1002.24 1003.02 1004.11 1004.96 1005.74 1006.37 1006.87 1007.32 1007.93 1008.53 1009.19 1009.80 1010.25 1010.81
1005.00 1005.45 1005.77 1006.23 1006.53 1006.33 1006.03 1005.80 1005.09 1004.69 1003.70 1002.17 1000.95 1000.78 1001.17 1001.57 1001.79 1001.79 1002.20 1003.07 1004.03 1004.52 1005.22 1005.97 1006.49 1006.99 1007.64 1008.34 1008.87 1009.44 1009.81 1010.20
1006.40 1006.99 1007.55 1007.86 1007.72 1007.43 1007.28 1006.40 1005.76 1005.02 1003.67 1002.04 1001.00 1000.96 1001.13 1001.31 1001.42 1001.70 1002.21 1002.98 1003.79 1004.23 1004.83 1005.72 1006.19 1006.71 1007.28 1008.12 1008.72 1009.24 1009.63 1010.02
1008.30 1008.59 1008.71 1008.78 1008.71 1008.49 1008.01 1007.18 1006.27 1005.11 1003.85 1002.23 1000.77 1000.86 1001.05 1001.19 1001.29 1001.60 1002.29 1003.19 1003.74 1004.45 1004.85 1005.61 1006.00 1006.44 1007.06 1007.88 1008.55 1009.04 1009.47 1009.89
1010.08 1010.40 1010.44 1010.34 1010.02 1009.38 1008.55 1007.51 1006.27 1005.03 1003.39 1001.87 1000.66 1000.77 1000.90 1000.96 1001.17 1001.68 1002.26 1003.27 1003.74 1004.40 1004.80 1005.44 1005.86 1006.18 1007.00 1007.71 1008.38 1008.83 1009.38 1009.79
1011.71 1011.84 1011.86 1011.60 1011.08 1010.35 1009.16 1007.91 1006.67 1005.28 1003.05 1001.00 1000.54 1000.73 1000.81 1000.92 1001.15 1001.69 1002.38 1003.33 1003.85 1004.38 1004.92 1005.20 1005.63 1005.93 1006.97 1007.70 1008.27 1008.73 1009.28 1009.69
1012.77 1012.78 1012.68 1012.53 1011.78 1010.78 1009.77 1008.58 1007.24 1005.85 1003.88 1002.74 1001.31 1000.75 1000.80 1000.89 1001.36 1001.78 1002.66 1003.46 1004.01 1004.55 1005.11 1005.33 1005.85 1006.56 1007.25 1007.88 1008.36 1008.72 1009.23 1009.70
Thickness
5736 5739 5742 5743 5743 5741 5740 5739 5733 5730 5723 5712 5710 5707 5706 5702 5700 5698 5692 5685 5680 5676 5672 5670 5664 5655 5647 5640 5633 5630 5623 5617
5739 5739 5738 5734 5730 5731 5731 5726 5723 5720 5716 5707 5703 5702 5702 5698 5697 5694 5687 5681 5676 5673 5669 5666 5661 5652 5645 5637 5628 5622 5618 5613
5724 5727 5724 5723 5719 5722 5722 5718 5715 5712 5710 5709 5703 5700 5700 5695 5693 5690 5687 5680 5675 5671 5667 5663 5658 5649 5641 5634 5627 5619 5615 5611
5714 5714 5709 5707 5709 5710 5707 5707 5707 5708 5707 5705 5699 5695 5689 5685 5684 5682 5683 5679 5676 5669 5663 5658 5653 5647 5639 5631 5626 5619 5613 5604
5705 5703 5697 5693 5698 5701 5697 5696 5698 5703 5705 5701 5694 5690 5681 5682 5680 5677 5676 5675 5671 5667 5663 5656 5649 5643 5636 5630 5624 5618 5612 5606
5690 5688 5688 5687 5689 5688 5686 5686 5686 5692 5695 5696 5690 5686 5684 5679 5674 5671 5668 5669 5667 5664 5661 5654 5646 5640 5634 5628 5621 5616 5611 5607
5675 5676 5676 5675 5679 5675 5676 5674 5677 5684 5686 5688 5687 5682 5678 5672 5671 5668 5666 5664 5663 5662 5659 5651 5642 5637 5632 5625 5619 5614 5609 5604
5656 5657 5658 5654 5657 5660 5664 5665 5667 5673 5678 5678 5680 5679 5673 5668 5668 5668 5666 5662 5659 5659 5655 5648 5640 5635 5629 5621 5613 5607 5603 5599
5639 5637 5637 5634 5640 5641 5643 5647 5651 5661 5664 5671 5674 5672 5668 5665 5666 5669 5666 5662 5658 5656 5652 5646 5637 5632 5626 5617 5609 5603 5599 5596
5622 5622 5620 5621 5623 5623 5624 5630 5638 5647 5651 5660 5668 5666 5662 5660 5662 5664 5665 5662 5656 5654 5648 5641 5636 5629 5623 5616 5607 5602 5598 5596
5615 5611 5609 5609 5610 5611 5613 5618 5625 5632 5637 5650 5660 5661 5659 5655 5655 5657 5660 5660 5652 5648 5642 5636 5632 5626 5621 5614 5606 5600 5596 5594
5597 5599 5601 5597 5599 5600 5602 5606 5611 5617 5626 5642 5659 5656 5655 5650 5649 5652 5655 5651 5646 5644 5639 5634 5631 5625 5620 5612 5604 5599 5595 5591
5582 5578 5578 5581 5585 5589 5590 5595 5599 5603 5612 5638 5652 5648 5646 5642 5642 5646 5648 5645 5639 5636 5633 5628 5625 5622 5617 5610 5603 5596 5593 5589
5565 5564 5564 5564 5564 5570 5574 5577 5587 5589 5600 5620 5632 5635 5634 5634 5635 5639 5638 5635 5631 5632 5631 5624 5622 5619 5614 5607 5600 5593 5590 5587
5551 5547 5543 5540 5544 5549 5551 5561 5568 5575 5589 5608 5620 5622 5623 5625 5628 5630 5628 5626 5623 5625 5626 5620 5617 5615 5611 5603 5597 5591 5586 5583
5529 5526 5524 5525 5526 5528 5533 5543 5551 5562 5574 5593 5611 5612 5613 5615 5619 5619 5616 5615 5615 5615 5617 5613 5611 5610 5606 5600 5595 5589 5584 5579
5503 5500 5499 5501 5504 5510 5518 5528 5540 5552 5567 5583 5600 5600 5601 5604 5607 5607 5607 5605 5607 5607 5609 5606 5606 5607 5598 5594 5590 5586 5582 5579
5480 5478 5478 5480 5485 5491 5502 5513 5524 5536 5558 5582 5587 5585 5586 5590 5595 5596 5597 5597 5599 5600 5600 5601 5602 5603 5592 5587 5584 5583 5579 5576
5464 5464 5465 5465 5470 5477 5486 5497 5507 5518 5535 5547 5565 5574 5577 5583 5585 5589 5590 5589 5590 5592 5591 5593 5594 5591 5585 5581 5578 5579 5574 5571